TimePDT,TemperatureF,Dew PointF,Humidity,Sea Level PressureIn,VisibilityMPH,Wind Direction,Wind SpeedMPH,Gust SpeedMPH,PrecipitationIn,Events,Conditions,WindDirDegrees,DateUTC
12:56 AM,71.1,34.0,26,29.81,10.0,Calm,Calm,-,N/A,,Partly Cloudy,0,2013-07-12 07:56:00
1:56 AM,64.0,39.9,41,29.83,10.0,Calm,Calm,-,N/A,,Clear,0,2013-07-12 08:56:00
2:56 AM,61.0,36.0,39,29.83,10.0,Calm,Calm,-,N/A,,Clear,0,2013-07-12 09:56:00
3:56 AM,59.0,37.0,44,29.84,10.0,SSE,4.6,-,N/A,,Clear,160,2013-07-12 10:56:00
4:56 AM,60.1,37.9,44,29.86,10.0,Calm,Calm,-,N/A,,Partly Cloudy,0,2013-07-12 11:56:00
5:56 AM,59.0,39.0,48,29.87,10.0,Calm,Calm,-,N/A,,Clear,0,2013-07-12 12:56:00
6:56 AM,63.0,36.0,37,29.88,10.0,SE,4.6,-,N/A,,Clear,140,2013-07-12 13:56:00
7:56 AM,66.0,39.0,37,29.89,10.0,East,4.6,-,N/A,,Clear,90,2013-07-12 14:56:00
8:56 AM,69.1,39.0,33,29.88,10.0,Variable,3.5,-,N/A,,Clear,0,2013-07-12 15:56:00
9:56 AM,72.0,39.0,30,29.88,10.0,NNW,5.8,-,N/A,,Clear,340,2013-07-12 16:56:00
10:56 AM,75.9,37.9,25,29.87,10.0,Variable,4.6,-,N/A,,Clear,0,2013-07-12 17:56:00
11:56 AM,78.1,35.1,21,29.87,10.0,ENE,3.5,-,N/A,,Clear,60,2013-07-12 18:56:00
12:56 PM,80.1,35.1,20,29.85,10.0,NNW,9.2,-,N/A,,Clear,330,2013-07-12 19:56:00
1:56 PM,82.0,36.0,19,29.85,10.0,NW,6.9,-,N/A,,Clear,310,2013-07-12 20:56:00
2:56 PM,84.0,35.1,17,29.83,10.0,NW,12.7,16.1,N/A,,Clear,310,2013-07-12 21:56:00
3:56 PM,84.0,30.0,14,29.82,10.0,NNW,8.1,20.7,N/A,,Clear,330,2013-07-12 22:56:00
4:56 PM,82.0,24.1,12,29.82,10.0,NW,6.9,23.0,N/A,,Clear,320,2013-07-12 23:56:00
5:56 PM,80.1,24.1,13,29.83,10.0,NW,4.6,-,N/A,,Partly Cloudy,310,2013-07-13 00:56:00
6:56 PM,79.0,32.0,18,29.83,10.0,North,5.8,-,N/A,,Partly Cloudy,350,2013-07-13 01:56:00
7:56 PM,78.1,23.0,13,29.85,10.0,West,6.9,-,N/A,,Partly Cloudy,270,2013-07-13 02:56:00
8:56 PM,75.0,28.9,18,29.87,10.0,NNW,8.1,-,N/A,,Partly Cloudy,330,2013-07-13 03:56:00
9:56 PM,72.0,28.9,20,29.88,10.0,West,5.8,-,0.00,,Scattered Clouds,260,2013-07-13 04:56:00
10:56 PM,70.0,28.9,22,29.89,10.0,SW,9.2,-,N/A,,Clear,230,2013-07-13 05:56:00
11:56 PM,66.9,30.9,26,29.92,10.0,SSE,3.5,-,N/A,,Clear,160,2013-07-13 06:56:00